GGGTR HLLM-HLLM

Flight info

Callsign GGGTR
Flight time 0h 5m
Altitude 2000
Route VFR
Aircraft ULAC/L-SBDE1E2E3FGHIJ1J4J5J7M3RWXYZ/LB1V1D1

Departure

Time 2026-05-06 16:55
Airport Mitiga International Airport (HLLM)

Arrival

Time 2026-05-06 17:00
Airport Mitiga International Airport (HLLM)
Time Latitude Longitude Altitude Speed Heading
2026-05-06 16:51 32.89268 13.29370 16 ft 11 kts 197°
2026-05-06 16:51 32.89209 13.29320 15 ft 13 kts 283°
2026-05-06 16:52 32.89246 13.29138 14 ft 17 kts 286°
2026-05-06 16:52 32.89276 13.29017 13 ft 13 kts 300°
2026-05-06 16:52 32.89260 13.28939 11 ft 13 kts 203°
2026-05-06 16:52 32.89206 13.28914 12 ft 9 kts 188°
2026-05-06 16:53 32.89161 13.28903 13 ft 8 kts 170°
2026-05-06 16:53 32.89145 13.28912 12 ft 0 kts 108°
2026-05-06 16:54 32.89131 13.28977 11 ft 28 kts 117°
2026-05-06 16:54 32.89103 13.29101 186 ft 21 kts 128°
2026-05-06 16:54 32.89057 13.29289 227 ft 36 kts 87°
2026-05-06 16:55 32.89307 13.29492 359 ft 51 kts 41°
2026-05-06 16:55 32.89498 13.29665 540 ft 33 kts 81°
2026-05-06 16:55 32.89806 13.29710 709 ft 64 kts 340°
2026-05-06 16:55 32.90032 13.29185 832 ft 72 kts 277°
2026-05-06 16:56 32.90196 13.28618 966 ft 78 kts 277°
2026-05-06 16:56 32.90371 13.28005 1094 ft 78 kts 267°
2026-05-06 16:56 32.90508 13.27394 1232 ft 74 kts 262°
2026-05-06 16:56 32.90643 13.26775 1348 ft 84 kts 285°
2026-05-06 16:57 32.90814 13.26108 1365 ft 83 kts 247°
2026-05-06 16:57 32.90814 13.25485 1490 ft 54 kts 207°
2026-05-06 16:57 32.90635 13.25271 1611 ft 35 kts 182°
2026-05-06 16:57 32.90492 13.25046 1779 ft 35 kts 188°
2026-05-06 16:58 32.90355 13.24785 1918 ft 38 kts 194°
2026-05-06 16:58 32.90570 13.24766 1915 ft 86 kts
2026-05-06 16:58 32.91008 13.24624 1959 ft 89 kts
2026-05-06 16:58 32.91611 13.24448 1955 ft 90 kts
2026-05-06 16:59 32.92191 13.24280 1985 ft 88 kts
2026-05-06 16:59 32.92790 13.24071 2078 ft 76 kts 358°
2026-05-06 16:59 32.93038 13.24046 2228 ft 11 kts 174°
2026-05-06 16:59 32.93102 13.23658 2150 ft 32 kts 104°
2026-05-06 17:00 32.93301 13.23910 1228 ft 79 kts 91°
2026-05-06 17:00 32.93410 13.24457 123 ft 73 kts 94°
2026-05-06 17:00 32.93467 13.24884 70 ft 41 kts 99°
2026-05-06 17:00 32.93197 13.24840 76 ft 59 kts 193°
2026-05-06 17:01 32.92841 13.24553 32 ft 60 kts 192°
2026-05-06 17:01 32.92508 13.24329 58 ft 51 kts 175°
2026-05-06 17:01 32.92179 13.24135 100 ft 61 kts 204°
2026-05-06 17:01 32.91973 13.23944 188 ft 34 kts 88°
2026-05-06 17:02 32.91999 13.24196 286 ft 31 kts 123°
2026-05-06 17:02 32.91843 13.24477 83 ft 46 kts 118°
2026-05-06 17:02 32.91781 13.24620 268 ft 22 kts 137°
2026-05-06 17:02 32.91575 13.24546 424 ft 37 kts 181°
2026-05-06 17:03 32.91364 13.24403 601 ft 28 kts 161°
2026-05-06 17:03 32.91228 13.24450 599 ft 31 kts 105°
2026-05-06 17:03 32.91253 13.24677 610 ft 36 kts 123°
2026-05-06 17:03 32.91026 13.24801 648 ft 34 kts 147°
2026-05-06 17:04 32.90808 13.24900 674 ft 28 kts 136°
2026-05-06 17:04 32.90690 13.25124 656 ft 33 kts 139°
2026-05-06 17:04 32.90499 13.25282 621 ft 33 kts 131°
2026-05-06 17:04 32.90310 13.25474 578 ft 40 kts 135°
2026-05-06 17:05 32.90128 13.25693 558 ft 38 kts 126°
2026-05-06 17:05 32.89967 13.25962 483 ft 35 kts 121°
2026-05-06 17:05 32.89835 13.26251 383 ft 47 kts 122°
2026-05-06 17:05 32.89703 13.26596 216 ft 48 kts 120°
2026-05-06 17:06 32.89607 13.26932 126 ft 44 kts 113°
2026-05-06 17:06 32.89521 13.27287 38 ft 34 kts 110°
2026-05-06 17:06 32.89486 13.27424 25 ft 9 kts 112°
2026-05-06 17:06 32.89502 13.27554 22 ft 22 kts 53°